Location: Antist
(43.1184°N, 0.1270°E)
Time: 20:58:16
(UTC+00:00)

Cosmos 2150 Rocket - Pass Details

Date: 19 January 2020
Orbit: 749 x 808 km, 74.0° (Epoch: 16 February)

Event Time Altitude Azimuth Distance (km) Brightness Sun altitude
Rises 17:17:28 0° 191° (S) 3,200 7.7 -4.7°
Reaches altitude 10° 17:19:50 10° 188° (S) 2,273 6.9 -5.1°
Maximum altitude 17:24:56 67° 107° (ESE) 812 4.0 -5.9°
Drops below altitude 10° 17:30:02 10° 25° (NNE) 2,277 6.0 -6.8°
Sets 17:32:25 0° 23° (NNE) 3,207 6.8 -7.2°
